METAR TAF Other Links Past 48-hour METAR METAR in this month
How to decode METAR/TAF?
Latest METAR (Issued by Hong Kong International Airport)
ICAO: VHHH

METAR VHHH 170200Z VRB02KT 9999 FEW035 15/07 Q1025 NOSIG= 

Latest TAF (Issued by Hong Kong International Airport)
ICAO: VHHH

TAF VHHH 162300Z 1700/1806 03010KT 9000 FEW030 TX20/1706Z TX18/1806Z 
TN15/1723Z TEMPO 1703/1709 30010KT TEMPO 1709/1715 VRB05KT BECMG 
1723/1801 09010KT= 

Other Links

National Weather Service (NWS)

Please select a meteorological centre from the following items.

Latest METAR:

Latest TAF:

Aviation Briefing Limited

To access the provided information, you must be a registered user to the server. You can Register Now, there is no charge for registration or use of the information.

Please select a meteorological centre from the following items.

Latest METAR/TAF:

Weather Underground of Hong Kong

ICAO: VHHH (Hong Kong International Airport)

Decoded 6-hourly Surface Synoptic Report
Latest METAR
Latest TAF

Hong Kong Weather Graphics

METAR from the Hong Kong International Airport (ICAO: VHHH) in the past 72 hours are plotted in the following graphs.

Temperature Variation
Visibility Variation
Pressure Variation
Wind Speeds & Directions

Hong Kong Observatory

Weather Forecast for Local Aviation
Aviation Weather Report (METAR/SPECI)
Aerodrome Forecast (TAF)


If you have any suggestions about this site, please kindly send an email to webmaster@weatherland.org.hk.